Flag for Germany Weather past 2 weeks in Bad Hersfeld, Hesse, Germany

Now
77 °F

Passing clouds.


Feels Like: 78 °F
Forecast: 49 / 80 °F
Wind: 3 mph from South

Location: Fritzlar Airport

Current Time: Aug 1, 2015 at 8:23:27 PM

Latest Report: Aug 1, 2015 at 7:20 PM


Visibility: N/A

Pressure: 29.95 "Hg

Humidity: 32%

Dew point: 45 °F

Location of Bad HersfeldLocation

Historic Weather in Bad Hersfeld — Graph

°F

Bad Hersfeld temperature yesterday

Maximum temperature yesterday: 66 °F (at 4:20 PM)
Minimum temperature yesterday: 45 °F (at 4:20 AM)
Average temperature yesterday: 56 °F

Past Weeks' High & Low Weather Summary

 TemperatureHumidityPressure
High93 °F (Jul 17, 6:20 PM)100% (Jul 19, 8:49 AM)30.12 "Hg (Jul 19, 8:49 AM)
Low45 °F (Jul 31, 4:20 AM)24% (Jul 17, 6:20 PM)29.56 "Hg (Jul 25, 10:20 AM)
Average64 °F70%29.88 "Hg
* Reported Jul 17 6:20 PM — Aug 1 6:20 PM, Bad Hersfeld, Weather by CustomWeather, © 2015

Note: Actual official high and low records may vary slightly from our data, if they occured in-between our weather recording intervals... More about our weather records

Advertising

Bad Hersfeld weather history for previous 24 hours

 ConditionsComfort  
Time TempWeatherWind HumidityBarometerVisibility
6:20 PM
Sat, Aug 1
77 °FPassing clouds.3 mph28%29.95 "HgN/A
5:20 PM77 °FPassing clouds.5 mph30%29.95 "Hg4 mi
4:20 PM77 °FPassing clouds.3 mph30%29.95 "HgN/A
3:20 PM77 °FPassing clouds.5 mph32%29.95 "HgN/A
2:20 PM73 °FPassing clouds.3 mph38%29.98 "HgN/A
1:20 PM72 °FPassing clouds.5 mph41%29.98 "HgN/A
12:20 PM70 °FScattered clouds.3 mph43%29.98 "HgN/A
11:20 AM66 °FPartly sunny.5 mph49%30.01 "HgN/A
10:20 AM63 °FPartly sunny.5 mph52%30.01 "HgN/A
9:20 AM57 °FPartly sunny.6 mph67%30.01 "HgN/A
8:20 AM54 °FPartly sunny.6 mph72%30.01 "HgN/A
7:20 AM50 °FBroken clouds.7 mph82%30.01 "HgN/A
6:20 AM50 °FPassing clouds.7 mph76%30.01 "HgN/A
5:20 AM48 °FPassing clouds.7 mph82%30.01 "HgN/A
4:20 AM48 °FPassing clouds.6 mph82%30.04 "HgN/A
3:20 AM50 °FOvercast.6 mph76%30.04 "HgN/A
2:20 AM50 °FOvercast.6 mph76%30.04 "HgN/A
1:20 AM50 °FPassing clouds.5 mph76%30.04 "HgN/A
12:20 AM50 °FPassing clouds.5 mph76%30.04 "HgN/A
11:20 PM
Fri, Jul 31
50 °FPassing clouds.2 mph82%30.04 "HgN/A
10:20 PM52 °FPassing clouds.1 mph72%30.04 "HgN/A
9:20 PM61 °FPassing clouds.5 mph48%30.04 "HgN/A
8:20 PM64 °FPassing clouds.6 mph40%30.04 "HgN/A
Weather by CustomWeather, © 2015

See weather overviewHow to use our weather pages